Time,TemperatureF,DewpointF,PressureIn,WindDirection,WindDirectionDegrees,WindSpeedMPH,WindSpeedGustMPH,Humidity,HourlyPrecipIn,Conditions,Clouds,dailyrainin,SoftwareType,DateUTC
2013-03-10 00:01:00,56.1,34.5,29.21,SSE,153,5.0,5.0,44,0.00,,,0.00,Wunderground v.1.15,2013-03-10 05:01:00,
2013-03-10 00:05:00,56.0,34.4,29.21,SSE,152,6.0,9.0,44,0.00,,,0.00,Wunderground v.1.15,2013-03-10 05:05:00,
2013-03-10 00:15:00,55.9,34.3,29.20,SSE,159,7.0,7.0,44,0.00,,,0.00,Wunderground v.1.15,2013-03-10 05:15:00,
2013-03-10 00:22:00,55.9,34.0,29.20,SSE,152,5.0,11.0,44,0.00,,,0.00,weatherlink.com 1.10,2013-03-10 05:22:00,
2013-03-10 00:30:00,55.8,34.2,29.19,SSE,150,7.0,7.0,44,0.00,,,0.00,Wunderground v.1.15,2013-03-10 05:30:00,
2013-03-10 00:39:00,56.0,34.0,29.19,SE,142,10.0,14.0,44,0.00,,,0.00,weatherlink.com 1.10,2013-03-10 05:39:00,
2013-03-10 00:45:00,56.1,34.5,29.19,SSE,162,8.0,8.0,44,0.00,,,0.00,Wunderground v.1.15,2013-03-10 05:45:00,
2013-03-10 00:50:00,56.1,34.5,29.19,SSE,151,7.0,7.0,44,0.00,,,0.00,Wunderground v.1.15,2013-03-10 05:50:00,
2013-03-10 00:55:00,56.1,34.5,29.19,SSE,163,7.0,8.0,44,0.00,,,0.00,Wunderground v.1.15,2013-03-10 05:55:00,
2013-03-10 01:01:00,56.1,34.5,29.19,SSE,161,6.0,6.0,44,0.00,,,0.00,Wunderground v.1.15,2013-03-10 06:01:00,
2013-03-10 01:07:00,56.3,34.0,29.19,SSE,164,8.0,14.0,43,0.00,,,0.00,weatherlink.com 1.10,2013-03-10 06:07:00,
2013-03-10 01:15:00,56.4,34.2,29.19,SE,138,5.0,6.0,43,0.00,,,0.00,Wunderground v.1.15,2013-03-10 06:15:00,
2013-03-10 01:20:00,56.3,34.1,29.19,South,181,5.0,5.0,43,0.00,,,0.00,Wunderground v.1.15,2013-03-10 06:20:00,
2013-03-10 01:30:00,56.5,34.3,29.19,SE,130,6.0,9.0,43,0.00,,,0.00,Wunderground v.1.15,2013-03-10 06:30:00,
2013-03-10 01:37:00,56.4,34.0,29.19,SE,146,3.0,12.0,43,0.00,,,0.00,weatherlink.com 1.10,2013-03-10 06:37:00,
2013-03-10 01:45:00,56.2,34.0,29.19,SSE,165,4.0,5.0,43,0.00,,,0.00,Wunderground v.1.15,2013-03-10 06:45:00,
2013-03-10 01:50:00,56.2,34.6,29.19,SSE,160,3.0,3.0,44,0.00,,,0.00,Wunderground v.1.15,2013-03-10 06:50:00,
2013-03-10 03:00:00,56.3,34.1,29.19,SSE,155,4.0,4.0,43,0.00,,,0.00,Wunderground v.1.15,2013-03-10 07:00:00,
2013-03-10 03:07:00,56.4,33.0,29.18,SSE,159,4.0,7.0,42,0.00,,,0.00,weatherlink.com 1.10,2013-03-10 07:07:00,
2013-03-10 03:15:00,56.6,34.3,29.18,SSE,161,4.0,4.0,43,0.00,,,0.00,Wunderground v.1.15,2013-03-10 07:15:00,
2013-03-10 03:20:00,56.6,34.3,29.18,SSW,202,4.0,4.0,43,0.00,,,0.00,Wunderground v.1.15,2013-03-10 07:20:00,
2013-03-10 03:30:00,56.4,34.2,29.19,SSE,167,4.0,5.0,43,0.00,,,0.00,Wunderground v.1.15,2013-03-10 07:30:00,
2013-03-10 03:35:00,56.2,34.0,29.18,SSE,165,4.0,14.0,43,0.00,,,0.00,Wunderground v.1.15,2013-03-10 07:35:00,
2013-03-10 03:45:00,55.8,34.2,29.18,South,178,5.0,5.0,44,0.00,,,0.00,Wunderground v.1.15,2013-03-10 07:45:00,
2013-03-10 03:50:00,55.8,34.2,29.18,South,184,5.0,14.0,44,0.00,,,0.00,Wunderground v.1.15,2013-03-10 07:50:00,
2013-03-10 03:55:00,55.8,33.6,29.18,South,171,5.0,14.0,43,0.00,,,0.00,Wunderground v.1.15,2013-03-10 07:55:00,
2013-03-10 04:00:00,55.7,34.1,29.18,South,186,4.0,4.0,44,0.00,,,0.00,Wunderground v.1.15,2013-03-10 08:00:00,
2013-03-10 04:07:00,55.5,34.0,29.18,South,185,4.0,6.0,45,0.00,,,0.00,weatherlink.com 1.10,2013-03-10 08:07:00,
2013-03-10 04:15:00,55.4,34.4,29.18,South,184,3.0,3.0,45,0.00,,,0.00,Wunderground v.1.15,2013-03-10 08:15:00,
2013-03-10 04:20:00,55.2,34.2,29.18,SSE,163,2.0,2.0,45,0.00,,,0.00,Wunderground v.1.15,2013-03-10 08:20:00,
2013-03-10 04:25:00,55.1,34.7,29.18,South,182,2.0,2.0,46,0.00,,,0.00,Wunderground v.1.15,2013-03-10 08:25:00,
2013-03-10 04:30:00,54.9,34.5,29.18,SSE,159,2.0,2.0,46,0.00,,,0.00,Wunderground v.1.15,2013-03-10 08:30:00,
2013-03-10 04:38:00,54.7,35.0,29.18,South,188,3.0,5.0,47,0.00,,,0.00,weatherlink.com 1.10,2013-03-10 08:38:00,
2013-03-10 04:45:00,54.6,34.2,29.17,South,178,2.0,3.0,46,0.00,,,0.00,Wunderground v.1.15,2013-03-10 08:45:00,
2013-03-10 04:50:00,54.8,34.4,29.17,SSE,163,3.0,3.0,46,0.00,,,0.00,Wunderground v.1.15,2013-03-10 08:50:00,
2013-03-10 04:55:00,54.8,34.4,29.17,SSW,195,3.0,10.0,46,0.00,,,0.00,Wunderground v.1.15,2013-03-10 08:55:00,
2013-03-10 05:00:00,54.9,33.9,29.17,South,177,3.0,3.0,45,0.00,,,0.00,Wunderground v.1.15,2013-03-10 09:00:00,
2013-03-10 05:08:00,55.2,35.0,29.17,South,170,3.0,8.0,46,0.00,,,0.00,weatherlink.com 1.10,2013-03-10 09:08:00,
2013-03-10 05:15:00,55.4,34.4,29.17,SSE,160,3.0,3.0,45,0.00,,,0.00,Wunderground v.1.15,2013-03-10 09:15:00,
2013-03-10 05:20:00,55.5,33.9,29.17,South,170,2.0,4.0,44,0.00,,,0.00,Wunderground v.1.15,2013-03-10 09:20:00,
2013-03-10 05:25:00,55.6,34.0,29.17,South,183,3.0,4.0,44,0.00,,,0.00,Wunderground v.1.15,2013-03-10 09:25:00,
2013-03-10 05:30:00,55.8,34.2,29.17,South,171,3.0,3.0,44,0.00,,,0.00,Wunderground v.1.15,2013-03-10 09:30:00,
2013-03-10 05:35:00,55.8,34.2,29.17,South,184,3.0,6.0,44,0.00,,,0.00,Wunderground v.1.15,2013-03-10 09:35:00,
2013-03-10 05:45:00,56.1,33.9,29.17,SE,139,4.0,6.0,43,0.00,,,0.00,Wunderground v.1.15,2013-03-10 09:45:00,
2013-03-10 05:50:00,56.3,34.1,29.17,SSE,154,4.0,4.0,43,0.00,,,0.00,Wunderground v.1.15,2013-03-10 09:50:00,
2013-03-10 05:55:00,56.3,34.1,29.18,SSE,163,4.0,5.0,43,0.00,,,0.00,Wunderground v.1.15,2013-03-10 09:55:00,
2013-03-10 06:00:00,56.5,33.7,29.18,SSE,162,4.0,5.0,42,0.00,,,0.00,Wunderground v.1.15,2013-03-10 10:00:00,
2013-03-10 06:08:00,56.3,34.0,29.18,SSW,200,3.0,7.0,44,0.00,,,0.00,weatherlink.com 1.10,2013-03-10 10:08:00,
2013-03-10 06:15:00,56.2,34.0,29.18,South,186,3.0,4.0,43,0.00,,,0.00,Wunderground v.1.15,2013-03-10 10:15:00,
2013-03-10 06:20:00,56.0,34.4,29.19,South,171,3.0,4.0,44,0.00,,,0.00,Wunderground v.1.15,2013-03-10 10:20:00,
2013-03-10 06:25:00,55.9,34.3,29.19,South,176,3.0,5.0,44,0.00,,,0.00,Wunderground v.1.15,2013-03-10 10:25:00,
2013-03-10 06:30:00,55.9,34.3,29.19,South,180,4.0,4.0,44,0.00,,,0.00,Wunderground v.1.15,2013-03-10 10:30:00,
2013-03-10 06:35:00,55.8,34.2,29.20,South,174,4.0,6.0,44,0.00,,,0.00,Wunderground v.1.15,2013-03-10 10:35:00,
2013-03-10 06:40:00,55.8,34.2,29.19,South,184,4.0,9.0,44,0.00,,,0.00,Wunderground v.1.15,2013-03-10 10:40:00,
2013-03-10 06:50:00,55.7,34.1,29.19,SSE,161,4.0,9.0,44,0.00,,,0.00,Wunderground v.1.15,2013-03-10 10:50:00,
2013-03-10 06:55:00,55.6,33.4,29.19,SSE,159,5.0,9.0,43,0.00,,,0.00,Wunderground v.1.15,2013-03-10 10:55:00,
2013-03-10 07:01:00,55.6,33.4,29.19,SSW,194,5.0,7.0,43,0.00,,,0.00,Wunderground v.1.15,2013-03-10 11:01:00,
2013-03-10 07:08:00,55.5,33.0,29.19,South,173,3.0,9.0,43,0.00,,,0.00,weatherlink.com 1.10,2013-03-10 11:08:00,
2013-03-10 07:15:00,55.4,33.3,29.19,SSE,163,5.0,5.0,43,0.00,,,0.00,Wunderground v.1.15,2013-03-10 11:15:00,
2013-03-10 07:23:00,55.1,33.0,29.19,SE,146,3.0,8.0,44,0.00,,,0.00,weatherlink.com 1.10,2013-03-10 11:23:00,
2013-03-10 07:30:00,55.0,32.9,29.20,South,186,4.0,5.0,43,0.00,,,0.00,Wunderground v.1.15,2013-03-10 11:30:00,
2013-03-10 07:35:00,55.1,33.0,29.20,SSE,157,4.0,5.0,43,0.00,,,0.00,Wunderground v.1.15,2013-03-10 11:35:00,
2013-03-10 07:40:00,54.9,33.4,29.20,South,171,4.0,4.0,44,0.00,,,0.00,Wunderground v.1.15,2013-03-10 11:40:00,
2013-03-10 07:45:00,54.8,32.7,29.20,South,178,4.0,4.0,43,0.00,,,0.00,Wunderground v.1.15,2013-03-10 11:45:00,
2013-03-10 07:53:00,54.6,32.0,29.20,SSE,164,7.0,8.0,43,0.00,,,0.00,weatherlink.com 1.10,2013-03-10 11:53:00,
2013-03-10 08:00:00,54.5,33.0,29.20,SSE,156,4.0,4.0,44,0.00,,,0.00,Wunderground v.1.15,2013-03-10 12:00:00,
2013-03-10 08:08:00,54.1,33.0,29.20,SSE,160,2.0,4.0,45,0.00,,,0.00,weatherlink.com 1.10,2013-03-10 12:08:00,
2013-03-10 08:15:00,53.6,32.8,29.20,South,175,3.0,3.0,45,0.00,,,0.00,Wunderground v.1.15,2013-03-10 12:15:00,
2013-03-10 08:20:00,53.4,32.6,29.19,SSE,158,3.0,4.0,45,0.00,,,0.00,Wunderground v.1.15,2013-03-10 12:20:00,
2013-03-10 08:30:00,53.5,33.2,29.20,SSE,165,4.0,5.0,46,0.00,,,0.00,Wunderground v.1.15,2013-03-10 12:30:00,
2013-03-10 08:35:00,53.4,32.6,29.20,South,188,3.0,11.0,45,0.00,,,0.00,Wunderground v.1.15,2013-03-10 12:35:00,
2013-03-10 08:40:00,53.5,33.2,29.20,SSW,212,3.0,11.0,46,0.00,,,0.00,Wunderground v.1.15,2013-03-10 12:40:00,
2013-03-10 08:45:00,53.4,33.1,29.20,SSE,168,4.0,11.0,46,0.00,,,0.00,Wunderground v.1.15,2013-03-10 12:45:00,
2013-03-10 08:50:00,53.2,33.5,29.20,SSE,168,3.0,3.0,47,0.00,,,0.00,Wunderground v.1.15,2013-03-10 12:50:00,
2013-03-10 09:00:00,53.0,33.8,29.20,South,173,3.0,3.0,48,0.00,,,0.00,Wunderground v.1.15,2013-03-10 13:00:00,
2013-03-10 09:08:00,53.4,34.0,29.20,SSE,150,4.0,8.0,48,0.00,,,0.00,weatherlink.com 1.10,2013-03-10 13:08:00,
2013-03-10 09:15:00,53.7,34.5,29.19,SSE,159,3.0,4.0,48,0.00,,,0.00,Wunderground v.1.15,2013-03-10 13:15:00,
2013-03-10 09:20:00,54.1,34.8,29.19,South,172,3.0,3.0,48,0.00,,,0.00,Wunderground v.1.15,2013-03-10 13:20:00,
2013-03-10 09:30:00,54.4,34.6,29.19,South,177,4.0,4.0,47,0.00,,,0.00,Wunderground v.1.15,2013-03-10 13:30:00,
2013-03-10 09:38:00,54.2,35.0,29.20,South,172,1.0,9.0,48,0.00,,,0.00,weatherlink.com 1.10,2013-03-10 13:38:00,
2013-03-10 09:45:00,54.8,35.5,29.20,SSE,153,3.0,7.0,48,0.00,,,0.00,Wunderground v.1.15,2013-03-10 13:45:00,
2013-03-10 09:50:00,55.3,35.9,29.20,South,169,3.0,7.0,48,0.00,,,0.00,Wunderground v.1.15,2013-03-10 13:50:00,
2013-03-10 09:55:00,55.7,36.3,29.20,SSE,156,4.0,7.0,48,0.00,,,0.00,Wunderground v.1.15,2013-03-10 13:55:00,
2013-03-10 10:00:00,56.1,35.6,29.20,SSE,165,4.0,4.0,46,0.00,,,0.00,Wunderground v.1.15,2013-03-10 14:00:00,
2013-03-10 10:09:00,56.6,36.0,29.20,South,170,5.0,9.0,47,0.00,,,0.00,weatherlink.com 1.10,2013-03-10 14:09:00,
2013-03-10 10:15:00,56.9,36.9,29.21,South,186,5.0,6.0,47,0.00,,,0.00,Wunderground v.1.15,2013-03-10 14:15:00,
2013-03-10 10:20:00,57.1,36.5,29.20,South,190,5.0,6.0,46,0.00,,,0.00,Wunderground v.1.15,2013-03-10 14:20:00,
2013-03-10 10:25:00,57.3,36.7,29.20,SSE,156,6.0,6.0,46,0.00,,,0.00,Wunderground v.1.15,2013-03-10 14:25:00,
2013-03-10 10:30:00,57.6,36.4,29.20,South,178,7.0,7.0,45,0.00,,,0.00,Wunderground v.1.15,2013-03-10 14:30:00,
2013-03-10 10:35:00,57.9,37.2,29.20,SSE,153,7.0,10.0,46,0.00,,,0.00,Wunderground v.1.15,2013-03-10 14:35:00,
2013-03-10 10:40:00,58.4,37.7,29.20,SSE,165,6.0,6.0,46,0.00,,,0.00,Wunderground v.1.15,2013-03-10 14:40:00,
2013-03-10 10:50:00,59.3,37.4,29.19,SSE,165,5.0,10.0,44,0.00,,,0.00,Wunderground v.1.15,2013-03-10 14:50:00,
2013-03-10 10:55:00,59.6,37.6,29.19,SE,133,5.0,10.0,44,0.00,,,0.00,Wunderground v.1.15,2013-03-10 14:55:00,
2013-03-10 11:00:00,60.5,37.9,29.18,South,190,5.0,11.0,43,0.00,,,0.00,Wunderground v.1.15,2013-03-10 15:00:00,
2013-03-10 11:09:00,59.4,37.0,29.18,SSE,159,9.0,15.0,43,0.00,,,0.00,weatherlink.com 1.10,2013-03-10 15:09:00,
2013-03-10 11:20:00,59.6,37.1,29.18,SSW,205,8.0,8.0,43,0.00,,,0.00,Wunderground v.1.15,2013-03-10 15:20:00,
2013-03-10 11:25:00,60.6,38.0,29.19,SSE,163,7.0,11.0,43,0.00,,,0.00,Wunderground v.1.15,2013-03-10 15:25:00,
2013-03-10 11:30:00,61.1,37.8,29.19,South,172,7.0,7.0,42,0.00,,,0.00,Wunderground v.1.15,2013-03-10 15:30:00,
2013-03-10 11:35:00,61.4,38.1,29.18,SSE,153,7.0,8.0,42,0.00,,,0.00,Wunderground v.1.15,2013-03-10 15:35:00,
2013-03-10 11:40:00,61.6,37.7,29.17,SSE,161,7.0,7.0,41,0.00,,,0.00,Wunderground v.1.15,2013-03-10 15:40:00,
2013-03-10 11:45:00,61.7,38.4,29.18,South,172,7.0,13.0,42,0.00,,,0.00,Wunderground v.1.15,2013-03-10 15:45:00,
2013-03-10 11:50:00,62.0,38.6,29.19,South,169,7.0,7.0,42,0.00,,,0.00,Wunderground v.1.15,2013-03-10 15:50:00,
2013-03-10 11:55:00,62.6,38.6,29.18,South,177,8.0,8.0,41,0.00,,,0.00,Wunderground v.1.15,2013-03-10 15:55:00,
2013-03-10 12:00:00,63.3,39.8,29.18,SE,136,6.0,6.0,42,0.00,,,0.00,Wunderground v.1.15,2013-03-10 16:00:00,
2013-03-10 12:09:00,63.7,38.0,29.18,SSE,153,4.0,14.0,39,0.00,,,0.00,weatherlink.com 1.10,2013-03-10 16:09:00,
2013-03-10 12:15:00,63.4,38.0,29.16,SE,142,6.0,14.0,39,0.00,,,0.00,Wunderground v.1.15,2013-03-10 16:15:00,
2013-03-10 12:24:00,63.9,38.0,29.16,SSE,148,8.0,14.0,39,0.00,,,0.00,weatherlink.com 1.10,2013-03-10 16:24:00,
2013-03-10 12:30:00,64.1,38.6,29.16,South,178,6.0,8.0,39,0.00,,,0.00,Wunderground v.1.15,2013-03-10 16:30:00,
2013-03-10 12:35:00,64.2,38.7,29.17,SE,144,7.0,9.0,39,0.00,,,0.00,Wunderground v.1.15,2013-03-10 16:35:00,
2013-03-10 12:40:00,64.0,37.2,29.17,SSE,165,7.0,7.0,37,0.00,,,0.00,Wunderground v.1.15,2013-03-10 16:40:00,
2013-03-10 12:45:00,63.7,37.6,29.17,South,172,6.0,15.0,38,0.00,,,0.00,Wunderground v.1.15,2013-03-10 16:45:00,
2013-03-10 12:50:00,64.0,37.9,29.17,SE,136,6.0,15.0,38,0.00,,,0.00,Wunderground v.1.15,2013-03-10 16:50:00,
2013-03-10 12:55:00,64.2,36.7,29.17,South,190,7.0,15.0,36,0.00,,,0.00,Wunderground v.1.15,2013-03-10 16:55:00,
2013-03-10 13:00:00,63.6,35.4,29.16,South,175,8.0,11.0,35,0.00,,,0.00,Wunderground v.1.15,2013-03-10 17:00:00,
2013-03-10 13:09:00,63.3,37.0,29.15,South,173,7.0,16.0,38,0.00,,,0.00,weatherlink.com 1.10,2013-03-10 17:09:00,
2013-03-10 13:15:00,64.2,38.0,29.15,South,169,7.0,8.0,38,0.00,,,0.00,Wunderground v.1.15,2013-03-10 17:15:00,
2013-03-10 13:24:00,65.8,39.0,29.15,SSE,153,10.0,19.0,37,0.00,,,0.00,weatherlink.com 1.10,2013-03-10 17:24:00,
2013-03-10 13:30:00,66.2,37.7,29.15,South,187,7.0,7.0,35,0.00,,,0.00,Wunderground v.1.15,2013-03-10 17:30:00,
2013-03-10 13:35:00,66.3,37.1,29.14,SSE,148,8.0,14.0,34,0.00,,,0.00,Wunderground v.1.15,2013-03-10 17:35:00,
2013-03-10 13:40:00,66.3,37.1,29.14,SE,142,9.0,17.0,34,0.00,,,0.00,Wunderground v.1.15,2013-03-10 17:40:00,
2013-03-10 13:50:00,67.1,37.8,29.14,South,183,7.0,17.0,34,0.00,,,0.00,Wunderground v.1.15,2013-03-10 17:50:00,
2013-03-10 14:00:00,67.0,37.7,29.14,SSE,167,6.0,8.0,34,0.00,,,0.00,Wunderground v.1.15,2013-03-10 18:00:00,
2013-03-10 14:09:00,66.8,38.0,29.13,SSE,153,8.0,14.0,35,0.00,,,0.00,weatherlink.com 1.10,2013-03-10 18:09:00,
2013-03-10 14:15:00,66.7,37.4,29.14,SSE,159,5.0,6.0,34,0.00,,,0.00,Wunderground v.1.15,2013-03-10 18:15:00,
2013-03-10 14:20:00,66.4,37.2,29.13,SSE,155,5.0,9.0,34,0.00,,,0.00,Wunderground v.1.15,2013-03-10 18:20:00,
2013-03-10 14:26:00,66.1,38.0,29.13,SSW,202,10.0,14.0,35,0.00,,,0.00,weatherlink.com 1.10,2013-03-10 18:26:00,
2013-03-10 14:35:00,66.4,37.9,29.12,SE,139,6.0,19.0,35,0.00,,,0.00,Wunderground v.1.15,2013-03-10 18:35:00,
2013-03-10 14:40:00,66.9,36.8,29.12,South,172,6.0,19.0,33,0.00,,,0.00,Wunderground v.1.15,2013-03-10 18:40:00,
2013-03-10 14:50:00,67.0,36.9,29.11,SE,131,6.0,6.0,33,0.00,,,0.00,Wunderground v.1.15,2013-03-10 18:50:00,
2013-03-10 14:55:00,66.9,37.0,29.11,South,170,4.0,13.0,33,0.00,,,0.00,weatherlink.com 1.10,2013-03-10 18:55:00,
2013-03-10 15:00:00,67.2,37.1,29.10,SSE,155,6.0,6.0,33,0.00,,,0.00,Wunderground v.1.15,2013-03-10 19:00:00,
2013-03-10 15:10:00,67.5,36.6,29.10,SSE,150,6.0,8.0,32,0.00,,,0.00,Wunderground v.1.15,2013-03-10 19:10:00,
2013-03-10 15:15:00,67.9,37.7,29.10,SSE,168,5.0,8.0,33,0.00,,,0.00,Wunderground v.1.15,2013-03-10 19:15:00,
2013-03-10 15:20:00,68.0,36.2,29.09,South,186,6.0,6.0,31,0.00,,,0.00,Wunderground v.1.15,2013-03-10 19:20:00,
2013-03-10 15:25:00,68.3,36.5,29.09,SSE,165,7.0,7.0,31,0.00,,,0.00,Wunderground v.1.15,2013-03-10 19:25:00,
2013-03-10 15:35:00,69.4,39.0,29.09,SSW,197,7.0,8.0,33,0.00,,,0.00,Wunderground v.1.15,2013-03-10 19:35:00,
2013-03-10 15:40:00,69.4,37.4,29.09,SSE,151,6.0,6.0,31,0.00,,,0.00,Wunderground v.1.15,2013-03-10 19:40:00,
2013-03-10 15:45:00,69.3,38.9,29.09,SSE,168,6.0,14.0,33,0.00,,,0.00,Wunderground v.1.15,2013-03-10 19:45:00,
2013-03-10 15:50:00,69.5,37.5,29.09,SE,146,5.0,14.0,31,0.00,,,0.00,Wunderground v.1.15,2013-03-10 19:50:00,
2013-03-10 15:55:00,69.4,37.4,29.09,South,178,5.0,14.0,31,0.00,,,0.00,Wunderground v.1.15,2013-03-10 19:55:00,
2013-03-10 16:00:00,68.9,37.0,29.09,South,182,5.0,5.0,31,0.00,,,0.00,Wunderground v.1.15,2013-03-10 20:00:00,
2013-03-10 16:10:00,68.5,37.0,29.09,SSE,150,3.0,9.0,32,0.00,,,0.00,weatherlink.com 1.10,2013-03-10 20:10:00,
2013-03-10 16:15:00,68.9,38.6,29.09,South,180,4.0,5.0,33,0.00,,,0.00,Wunderground v.1.15,2013-03-10 20:15:00,
2013-03-10 16:20:00,69.3,37.3,29.09,SSE,159,3.0,3.0,31,0.00,,,0.00,Wunderground v.1.15,2013-03-10 20:20:00,
2013-03-10 16:25:00,69.5,37.5,29.09,SSE,161,3.0,4.0,31,0.00,,,0.00,Wunderground v.1.15,2013-03-10 20:25:00,
2013-03-10 16:30:00,69.7,36.9,29.09,South,176,4.0,5.0,30,0.00,,,0.00,Wunderground v.1.15,2013-03-10 20:30:00,
2013-03-10 16:40:00,69.3,36.5,29.09,SSE,149,6.0,16.0,30,0.00,,,0.00,Wunderground v.1.15,2013-03-10 20:40:00,
2013-03-10 16:45:00,69.1,37.2,29.08,South,171,5.0,16.0,31,0.00,,,0.00,Wunderground v.1.15,2013-03-10 20:45:00,
2013-03-10 16:50:00,68.8,36.9,29.08,SSE,159,4.0,4.0,31,0.00,,,0.00,Wunderground v.1.15,2013-03-10 20:50:00,
2013-03-10 16:55:00,68.6,35.9,29.08,SSE,153,4.0,16.0,30,0.00,,,0.00,Wunderground v.1.15,2013-03-10 20:55:00,
2013-03-10 17:00:00,68.5,35.8,29.07,SE,146,4.0,4.0,30,0.00,,,0.00,Wunderground v.1.15,2013-03-10 21:00:00,
2013-03-10 17:10:00,68.5,35.0,29.07,SSE,159,6.0,6.0,29,0.00,,,0.00,Wunderground v.1.15,2013-03-10 21:10:00,
2013-03-10 17:15:00,68.9,36.2,29.07,SSE,161,7.0,7.0,30,0.00,,,0.00,Wunderground v.1.15,2013-03-10 21:15:00,
2013-03-10 17:20:00,69.6,35.0,29.07,South,184,7.0,8.0,28,0.00,,,0.00,Wunderground v.1.15,2013-03-10 21:20:00,
2013-03-10 17:25:00,69.4,35.7,29.07,SSE,155,6.0,8.0,29,0.00,,,0.00,Wunderground v.1.15,2013-03-10 21:25:00,
2013-03-10 17:30:00,68.8,36.1,29.06,SE,136,6.0,6.0,30,0.00,,,0.00,Wunderground v.1.15,2013-03-10 21:30:00,
2013-03-10 17:35:00,68.4,35.7,29.06,SSE,161,6.0,11.0,30,0.00,,,0.00,Wunderground v.1.15,2013-03-10 21:35:00,
2013-03-10 17:40:00,67.8,35.0,29.06,SSE,154,5.0,10.0,30,0.00,,,0.00,weatherlink.com 1.10,2013-03-10 21:40:00,
2013-03-10 17:45:00,67.4,34.9,29.06,SE,146,5.0,11.0,30,0.00,,,0.00,Wunderground v.1.15,2013-03-10 21:45:00,
2013-03-10 17:50:00,67.1,36.2,29.06,SSW,195,5.0,11.0,32,0.00,,,0.00,Wunderground v.1.15,2013-03-10 21:50:00,
2013-03-10 17:55:00,67.0,35.3,29.06,South,184,5.0,11.0,31,0.00,,,0.00,Wunderground v.1.15,2013-03-10 21:55:00,
2013-03-10 18:00:00,67.1,36.2,29.06,SSE,163,5.0,5.0,32,0.00,,,0.00,Wunderground v.1.15,2013-03-10 22:00:00,
2013-03-10 18:10:00,67.2,35.5,29.05,SSE,147,5.0,5.0,31,0.00,,,0.00,Wunderground v.1.15,2013-03-10 22:10:00,
2013-03-10 18:20:00,66.8,35.2,29.05,SSE,161,6.0,7.0,31,0.00,,,0.00,Wunderground v.1.15,2013-03-10 22:20:00,
2013-03-10 18:25:00,66.9,35.3,29.05,SE,146,6.0,8.0,31,0.00,,,0.00,Wunderground v.1.15,2013-03-10 22:25:00,
2013-03-10 18:30:00,67.0,35.3,29.04,SSE,149,7.0,7.0,31,0.00,,,0.00,Wunderground v.1.15,2013-03-10 22:30:00,
2013-03-10 18:35:00,67.0,36.1,29.05,SSE,153,6.0,11.0,32,0.00,,,0.00,Wunderground v.1.15,2013-03-10 22:35:00,
2013-03-10 18:40:00,67.0,36.1,29.04,SSE,155,5.0,5.0,32,0.00,,,0.00,Wunderground v.1.15,2013-03-10 22:40:00,
2013-03-10 18:45:00,67.3,37.2,29.04,SSE,154,6.0,6.0,33,0.00,,,0.00,Wunderground v.1.15,2013-03-10 22:45:00,
2013-03-10 18:50:00,67.9,36.9,29.03,SSE,152,5.0,22.0,32,0.00,,,0.00,Wunderground v.1.15,2013-03-10 22:50:00,
2013-03-10 18:55:00,68.0,36.2,29.04,SE,132,5.0,22.0,31,0.00,,,0.00,Wunderground v.1.15,2013-03-10 22:55:00,
2013-03-10 19:00:00,67.7,36.8,29.03,SSE,159,5.0,6.0,32,0.00,,,0.00,Wunderground v.1.15,2013-03-10 23:00:00,
2013-03-10 19:10:00,66.9,36.8,29.03,SSE,167,4.0,4.0,33,0.00,,,0.00,Wunderground v.1.15,2013-03-10 23:10:00,
2013-03-10 19:15:00,66.5,36.5,29.03,SSE,147,4.0,4.0,33,0.00,,,0.00,Wunderground v.1.15,2013-03-10 23:15:00,
2013-03-10 19:25:00,65.8,36.6,29.03,SE,141,5.0,6.0,34,0.00,,,0.00,Wunderground v.1.15,2013-03-10 23:25:00,
2013-03-10 19:30:00,65.7,36.5,29.03,SSE,156,5.0,5.0,34,0.00,,,0.00,Wunderground v.1.15,2013-03-10 23:30:00,
2013-03-10 19:35:00,65.3,36.2,29.03,SSE,147,4.0,6.0,34,0.00,,,0.00,Wunderground v.1.15,2013-03-10 23:35:00,
2013-03-10 19:40:00,65.1,36.0,29.03,SSE,150,4.0,4.0,34,0.00,,,0.00,Wunderground v.1.15,2013-03-10 23:40:00,
2013-03-10 19:45:00,64.7,36.4,29.03,SE,134,4.0,7.0,35,0.00,,,0.00,Wunderground v.1.15,2013-03-10 23:45:00,
2013-03-10 19:50:00,64.6,36.3,29.02,SSE,154,5.0,16.0,35,0.00,,,0.00,Wunderground v.1.15,2013-03-10 23:50:00,
2013-03-10 19:55:00,64.5,36.2,29.02,SSE,159,5.0,16.0,35,0.00,,,0.00,Wunderground v.1.15,2013-03-10 23:55:00,
2013-03-10 20:01:00,64.2,36.0,29.02,SSE,149,5.0,5.0,35,0.00,,,0.00,Wunderground v.1.15,2013-03-11 00:01:00,
2013-03-10 20:10:00,64.0,36.5,29.02,SSE,152,6.0,11.0,36,0.00,,,0.00,Wunderground v.1.15,2013-03-11 00:10:00,
2013-03-10 20:15:00,63.9,36.4,29.03,SSE,163,7.0,11.0,36,0.00,,,0.00,Wunderground v.1.15,2013-03-11 00:15:00,
2013-03-10 20:20:00,63.9,36.4,29.02,SSE,147,7.0,9.0,36,0.00,,,0.00,Wunderground v.1.15,2013-03-11 00:20:00,
2013-03-10 20:26:00,63.9,37.0,29.02,SE,140,11.0,15.0,37,0.00,,,0.00,weatherlink.com 1.10,2013-03-11 00:26:00,
2013-03-10 20:35:00,63.8,37.0,29.02,SSE,155,9.0,10.0,37,0.00,,,0.00,Wunderground v.1.15,2013-03-11 00:35:00,
2013-03-10 20:45:00,63.6,37.5,29.03,South,178,8.0,9.0,38,0.00,,,0.00,Wunderground v.1.15,2013-03-11 00:45:00,
2013-03-10 20:50:00,63.5,37.4,29.03,SSE,165,8.0,12.0,38,0.00,,,0.00,Wunderground v.1.15,2013-03-11 00:50:00,
2013-03-10 21:01:00,63.3,37.2,29.02,SSE,159,9.0,9.0,38,0.00,,,0.00,Wunderground v.1.15,2013-03-11 01:01:00,
2013-03-10 21:10:00,63.2,37.8,29.03,SSE,158,9.0,9.0,39,0.00,,,0.00,Wunderground v.1.15,2013-03-11 01:10:00,
2013-03-10 21:15:00,63.1,37.7,29.03,SE,142,9.0,9.0,39,0.00,,,0.00,Wunderground v.1.15,2013-03-11 01:15:00,
2013-03-10 21:20:00,63.0,38.3,29.03,SSE,162,8.0,8.0,40,0.00,,,0.00,Wunderground v.1.15,2013-03-11 01:20:00,
2013-03-10 21:25:00,62.9,38.2,29.03,SSE,149,7.0,8.0,40,0.00,,,0.00,Wunderground v.1.15,2013-03-11 01:25:00,
2013-03-10 21:35:00,62.5,38.5,29.03,SSE,159,5.0,6.0,41,0.00,,,0.00,Wunderground v.1.15,2013-03-11 01:35:00,
2013-03-10 21:40:00,62.3,38.3,29.04,South,186,5.0,5.0,41,0.00,,,0.00,Wunderground v.1.15,2013-03-11 01:40:00,
2013-03-10 21:50:00,61.8,39.1,29.04,SE,140,4.0,5.0,43,0.00,,,0.00,Wunderground v.1.15,2013-03-11 01:50:00,
2013-03-10 21:55:00,61.7,39.6,29.04,SSE,164,5.0,5.0,44,0.00,,,0.00,Wunderground v.1.15,2013-03-11 01:55:00,
2013-03-10 22:01:00,61.5,39.4,29.03,SSE,148,5.0,5.0,44,0.00,,,0.00,Wunderground v.1.15,2013-03-11 02:01:00,
2013-03-10 22:10:00,61.4,39.9,29.04,SE,145,6.0,6.0,45,0.00,,,0.00,Wunderground v.1.15,2013-03-11 02:10:00,
2013-03-10 22:15:00,61.4,39.9,29.04,SSE,155,6.0,6.0,45,0.00,,,0.00,Wunderground v.1.15,2013-03-11 02:15:00,
2013-03-10 22:25:00,61.7,40.7,29.04,SE,142,7.0,10.0,46,0.00,,,0.00,Wunderground v.1.15,2013-03-11 02:25:00,
2013-03-10 22:35:00,61.7,40.7,29.03,SE,140,8.0,9.0,46,0.00,,,0.00,Wunderground v.1.15,2013-03-11 02:35:00,
2013-03-10 22:40:00,61.7,40.7,29.03,SSE,155,8.0,8.0,46,0.00,,,0.00,Wunderground v.1.15,2013-03-11 02:40:00,
2013-03-10 22:45:00,61.7,41.3,29.03,SSE,148,8.0,11.0,47,0.00,,,0.00,Wunderground v.1.15,2013-03-11 02:45:00,
2013-03-10 22:50:00,61.6,41.2,29.03,SSW,198,8.0,8.0,47,0.00,,,0.00,Wunderground v.1.15,2013-03-11 02:50:00,
2013-03-10 22:55:00,61.6,41.7,29.03,SSE,164,8.0,8.0,48,0.00,,,0.00,Wunderground v.1.15,2013-03-11 02:55:00,
2013-03-10 23:00:00,61.5,41.6,29.03,SSE,167,8.0,8.0,48,0.00,,,0.00,Wunderground v.1.15,2013-03-11 03:00:00,
2013-03-10 23:10:00,61.0,41.7,29.03,South,175,6.0,9.0,49,0.00,,,0.00,Wunderground v.1.15,2013-03-11 03:10:00,
2013-03-10 23:15:00,61.1,41.8,29.03,SE,146,7.0,9.0,49,0.00,,,0.00,Wunderground v.1.15,2013-03-11 03:15:00,
2013-03-10 23:20:00,61.2,41.9,29.03,South,172,8.0,8.0,49,0.00,,,0.00,Wunderground v.1.15,2013-03-11 03:20:00,
2013-03-10 23:25:00,61.1,41.8,29.04,SSE,167,7.0,8.0,49,0.00,,,0.00,Wunderground v.1.15,2013-03-11 03:25:00,
2013-03-10 23:30:00,61.1,42.3,29.03,South,182,5.0,12.0,50,0.00,,,0.00,Wunderground v.1.15,2013-03-11 03:30:00,
2013-03-10 23:35:00,61.0,42.2,29.04,SSE,148,6.0,14.0,50,0.00,,,0.00,Wunderground v.1.15,2013-03-11 03:35:00,
2013-03-10 23:41:00,60.9,42.0,29.05,SSE,166,4.0,14.0,51,0.00,,,0.00,weatherlink.com 1.10,2013-03-11 03:41:00,
2013-03-10 23:50:00,60.7,43.0,29.05,SSW,192,5.0,14.0,52,0.00,,,0.00,Wunderground v.1.15,2013-03-11 03:50:00,
2013-03-10 23:55:00,60.8,43.1,29.04,ESE,115,6.0,14.0,52,0.00,,,0.00,Wunderground v.1.15,2013-03-11 03:55:00,